Location: Ravensburg
(47.7866°N, 9.6124°E)
Time: 02:59:47
(UTC+02:00)

CAS-6 - Pass Details

Date: 20 March 2026
Orbit: 601 x 618 km, 97.8° (Epoch: 14 April)

Event Time Altitude Azimuth Distance (km) Brightness Sun altitude
Exits shadow 21:55:31 20° 359° (N) 1,410 ? -31.7°
Drops below altitude 10° 21:56:55 10° 354° (N) 1,960 ? -31.9°
Sets 21:59:07 0° 351° (N) 2,871 ? -32.1°
